Weather History for KEWR - October, 2011

Change the Weather History Date:

Sunday, October 16, 2011

  Actual Average Record
Temperature  
Mean Temperature 62 °F 56 °F  
Max Temperature 70 °F 65 °F 84 °F (1958)
Min Temperature 53 °F 48 °F 31 °F (1944)
Degree Days  
Heating Degree Days 3 9  
Month to date heating degree days 54 108  
Since 1 July heating degree days 73 153  
Cooling Degree Days 0 0  
Month to date cooling degree days 22 14  
Year to date cooling degree days 1585 1188  
Growing Degree Days 11 (Base 50)    
Moisture  
Dew Point 38 °F    
Average Humidity 42    
Maximum Humidity 52    
Minimum Humidity 31    
Precipitation  
Precipitation T in 0.11 in 1.42 in (1974)
Month to date precipitation 2.35 1.89  
Year to date precipitation 58.42 37.08  
Snow  
Snow 0.00 in 0.00 in 0.00 in (2001)
Month to date snowfall 0.0 0.0  
Since 1 July snowfall T 0.0  
Snow Depth 0.00 in    
Sea Level Pressure  
Sea Level Pressure 29.81 in    
Wind  
Wind Speed 14 mph (SW)    
Max Wind Speed 26 mph    
Max Gust Speed 36 mph    
Visibility 10 miles    
Events      
T = Trace of Precipitation, MM = Missing Value Source: NWS Daily Summary

Daily Weather History Graph

Daily Weather History Graph

Search for Another Location

Airport or City:

Trip Planner

Search our weather history database for the weather conditions in past years. The results will help you decide how hot, cold, wet, or windy it might be!

Date:

Astronomy

Oct. 16, 2011 Rise Set
Actual Time 7:08 AM EDT 6:15 PM EDT
Civil Twilight 6:40 AM EDT 6:42 PM EDT
Nautical Twilight 6:09 AM EDT 7:14 PM EDT
Astronomical Twilight 5:37 AM EDT 7:46 PM EDT
Moon 8:57 PM EDT (10/16) 11:24 AM EDT (10/16)
Length of Visible Light 12h 01m
Length of Day
11h 06m
Waning Gibbous, 82% of the Moon is Illuminated
Oct 16
Waning Gibbous
Oct 19
Last Quarter
Oct 26
New
Nov 2
First Quarter
Nov 10
Full

Hourly Weather History & Observations

Time (EDT) Temp. Dew Point Humidity Pressure Visibility Wind Dir Wind Speed Gust Speed Precip Events Conditions
12:51 AM 57.2 °F 37.4 °F 48% 29.81 in 10.0 mi SW 12.7 mph - N/A   Scattered Clouds
1:51 AM 57.0 °F 36.0 °F 45% 29.81 in 10.0 mi SW 11.5 mph - N/A   Mostly Cloudy
2:51 AM 57.0 °F 35.1 °F 44% 29.81 in 10.0 mi SW 11.5 mph - N/A   Mostly Cloudy
3:51 AM 57.0 °F 34.0 °F 42% 29.81 in 10.0 mi SW 12.7 mph - N/A   Scattered Clouds
4:51 AM 55.9 °F 34.0 °F 44% 29.83 in 10.0 mi SSW 12.7 mph - N/A   Mostly Cloudy
5:51 AM 55.0 °F 34.0 °F 45% 29.85 in 10.0 mi SW 13.8 mph - N/A   Partly Cloudy
6:51 AM 53.6 °F 33.8 °F 47% 29.87 in 10.0 mi SW 13.8 mph - N/A   Scattered Clouds
7:51 AM 54.0 °F 35.1 °F 49% 29.89 in 10.0 mi SW 15.0 mph - N/A   Mostly Cloudy
8:51 AM 57.9 °F 36.0 °F 44% 29.91 in 10.0 mi SW 16.1 mph 24.2 mph N/A   Scattered Clouds
9:51 AM 61.0 °F 37.0 °F 41% 29.92 in 10.0 mi SW 15.0 mph - N/A   Scattered Clouds
10:51 AM 64.0 °F 36.0 °F 35% 29.91 in 10.0 mi SW 21.9 mph 29.9 mph N/A   Scattered Clouds
11:51 AM 66.0 °F 37.0 °F 34% 29.89 in 10.0 mi WSW 20.7 mph 28.8 mph N/A   Scattered Clouds
12:51 PM 66.9 °F 37.0 °F 33% 29.87 in 10.0 mi West 18.4 mph 31.1 mph N/A   Scattered Clouds
1:51 PM 69.1 °F 37.0 °F 31% 29.85 in 10.0 mi WSW 19.6 mph 28.8 mph N/A   Scattered Clouds
2:51 PM 69.1 °F 37.0 °F 31% 29.82 in 10.0 mi WSW 20.7 mph 27.6 mph N/A   Scattered Clouds
3:51 PM 69.1 °F 37.0 °F 31% 29.80 in 10.0 mi WSW 16.1 mph 25.3 mph N/A   Scattered Clouds
4:51 PM 68.0 °F 37.9 °F 33% 29.77 in 10.0 mi SW 17.3 mph 27.6 mph N/A   Mostly Cloudy
5:51 PM 66.9 °F 39.0 °F 36% 29.75 in 10.0 mi SW 11.5 mph - N/A   Mostly Cloudy
6:51 PM 64.9 °F 39.9 °F 40% 29.75 in 10.0 mi SSW 13.8 mph - N/A   Mostly Cloudy
7:51 PM 64.9 °F 39.9 °F 40% 29.76 in 10.0 mi SSW 15.0 mph - N/A   Overcast
8:51 PM 64.0 °F 43.0 °F 46% 29.75 in 10.0 mi South 9.2 mph - 0.00 in   Overcast
9:51 PM 63.0 °F 44.1 °F 50% 29.73 in 10.0 mi South 10.4 mph - N/A   Overcast
10:51 PM 63.0 °F 44.1 °F 50% 29.70 in 10.0 mi South 11.5 mph - N/A   Overcast
11:51 PM 63.0 °F 44.1 °F 50% 29.66 in 10.0 mi South 10.4 mph - N/A   Overcast